Weather History for KDNS - September, 2013

Change the Weather History Date:

Thursday, September 26, 2013

  Actual Average Record
Temperature  
Mean Temperature 73 °F -  
Max Temperature 84 °F 69 °F 93 °F (1998)
Min Temperature 62 °F 46 °F 33 °F (2001)
Cooling Degree Days 8    
Growing Degree Days 23 (Base 50)    
Moisture  
Dew Point 59 °F    
Average Humidity 68    
Maximum Humidity 94    
Minimum Humidity 40    
Precipitation  
Precipitation 0.00 in - - ()
Sea Level Pressure  
Sea Level Pressure 29.81 in    
Wind  
Wind Speed 15 mph (SSE)    
Max Wind Speed 30 mph    
Max Gust Speed 38 mph    
Visibility 10 miles    
Events      
Averages and records for this station are not official NWS values.
T = Trace of Precipitation, MM = Missing Value Source: NWS Daily Summary

Daily Weather History Graph

Daily Weather History Graph

Search for Another Location

Airport or City:

Trip Planner

Search our weather history database for the weather conditions in past years. The results will help you decide how hot, cold, wet, or windy it might be!

Date:

Astronomy

Sep. 26, 2013 Rise Set
Actual Time 7:13 AM CDT 7:11 PM CDT
Civil Twilight 6:45 AM CDT 7:39 PM CDT
Nautical Twilight 6:13 AM CDT 8:11 PM CDT
Astronomical Twilight 5:40 AM CDT 8:44 PM CDT
Moon No Moon Rise 2:11 PM CDT (9/26)
Length of Visible Light 12h 53m
Length of Day
11h 57m
Waning Gibbous, 54% of the Moon is Illuminated
Sep 26
Waning Gibbous
Sep 26
Last Quarter
Oct 4
New
Oct 11
First Quarter
Oct 18
Full

Hourly Weather History & Observations

Time (CDT) Temp. Heat Index Dew Point Humidity Pressure Visibility Wind Dir Wind Speed Gust Speed Precip Events Conditions
12:15 AM 64.4 °F - 60.8 °F 88% 29.83 in 10.0 mi SSE 12.7 mph - N/A   Clear
12:35 AM 64.4 °F - 60.8 °F 88% 29.83 in 10.0 mi SSE 11.5 mph 19.6 mph N/A   Clear
12:55 AM 64.4 °F - 60.8 °F 88% 29.82 in 10.0 mi SSE 12.7 mph - N/A   Clear
1:15 AM 64.4 °F - 60.8 °F 88% 29.82 in 10.0 mi SSE 11.5 mph - N/A   Clear
1:35 AM 64.4 °F - 60.8 °F 88% 29.82 in 10.0 mi SSE 11.5 mph - N/A   Clear
1:55 AM 62.6 °F - 60.8 °F 94% 29.83 in 10.0 mi SSE 13.8 mph - N/A   Clear
2:15 AM 62.6 °F - 60.8 °F 94% 29.83 in 10.0 mi SSE 10.4 mph 16.1 mph N/A   Clear
2:35 AM 62.6 °F - 60.8 °F 94% 29.83 in 10.0 mi SSE 10.4 mph - N/A   Clear
2:55 AM 62.6 °F - 60.8 °F 94% 29.82 in 10.0 mi SSE 8.1 mph - N/A   Clear
3:15 AM 62.6 °F - 60.8 °F 94% 29.82 in 10.0 mi SE 8.1 mph - N/A   Clear
3:35 AM 62.6 °F - 60.8 °F 94% 29.81 in 8.0 mi SE 10.4 mph - N/A   Clear
3:55 AM 62.6 °F - 60.8 °F 94% 29.80 in 9.0 mi SSE 10.4 mph 18.4 mph N/A   Clear
4:15 AM 62.6 °F - 60.8 °F 94% 29.81 in 10.0 mi SSE 10.4 mph 17.3 mph N/A   Clear
4:35 AM 62.6 °F - 60.8 °F 94% 29.80 in 10.0 mi SSE 11.5 mph - N/A   Clear
4:55 AM 62.6 °F - 60.8 °F 94% 29.81 in 10.0 mi SSE 12.7 mph 19.6 mph N/A   Clear
5:15 AM 62.6 °F - 60.8 °F 94% 29.81 in 10.0 mi SSE 11.5 mph - N/A   Clear
5:35 AM 62.6 °F - 60.8 °F 94% 29.81 in 10.0 mi SSE 10.4 mph 19.6 mph N/A   Clear
5:55 AM 62.6 °F - 60.8 °F 94% 29.81 in 10.0 mi SSE 10.4 mph 18.4 mph N/A   Clear
6:15 AM 62.6 °F - 60.8 °F 94% 29.82 in 10.0 mi SSE 10.4 mph 17.3 mph N/A   Clear
6:35 AM 62.6 °F - 60.8 °F 94% 29.82 in 10.0 mi SSE 11.5 mph - N/A   Clear
6:55 AM 62.6 °F - 59.0 °F 88% 29.82 in 10.0 mi SSE 10.4 mph 18.4 mph N/A   Clear
7:15 AM 62.6 °F - 59.0 °F 88% 29.82 in 8.0 mi SSE 15.0 mph 21.9 mph N/A   Clear
7:35 AM 62.6 °F - 60.8 °F 94% 29.83 in 8.0 mi SSE 12.7 mph 20.7 mph N/A   Clear
7:55 AM 62.6 °F - 60.8 °F 94% 29.83 in 8.0 mi SSE 13.8 mph 23.0 mph N/A   Clear
8:15 AM 62.6 °F - 60.8 °F 94% 29.83 in 9.0 mi SSE 19.6 mph - N/A   Clear
8:35 AM 64.4 °F - 60.8 °F 88% 29.84 in 9.0 mi SSE 17.3 mph 24.2 mph N/A   Clear
8:55 AM 66.2 °F - 60.8 °F 83% 29.84 in 10.0 mi SSE 16.1 mph 26.5 mph N/A   Clear
9:15 AM 66.2 °F - 60.8 °F 83% 29.84 in 10.0 mi SSE 16.1 mph 24.2 mph N/A   Clear
9:35 AM 68.0 °F - 60.8 °F 78% 29.84 in 10.0 mi SSE 15.0 mph 27.6 mph N/A   Clear
9:55 AM 69.8 °F - 60.8 °F 73% 29.83 in 10.0 mi SSE 23.0 mph 32.2 mph N/A   Clear
10:15 AM 71.6 °F - 60.8 °F 69% 29.83 in 10.0 mi SSE 23.0 mph 31.1 mph N/A   Clear
10:35 AM 73.4 °F - 60.8 °F 65% 29.83 in 10.0 mi South 24.2 mph 34.5 mph N/A   Clear
10:55 AM 73.4 °F - 60.8 °F 65% 29.83 in 10.0 mi South 29.9 mph 38.0 mph N/A   Clear
11:15 AM 75.2 °F - 60.8 °F 61% 29.83 in 10.0 mi SSE 21.9 mph 34.5 mph N/A   Clear
11:35 AM 75.2 °F - 59.0 °F 57% 29.82 in 10.0 mi South 20.7 mph 31.1 mph N/A   Clear
11:55 AM 77.0 °F - 59.0 °F 54% 29.81 in 10.0 mi SSE 23.0 mph 33.4 mph N/A   Clear
12:15 PM 77.0 °F - 59.0 °F 54% 29.81 in 10.0 mi SSE 20.7 mph 35.7 mph N/A   Clear
12:35 PM 78.8 °F - 59.0 °F 51% 29.81 in 10.0 mi South 18.4 mph 32.2 mph N/A   Clear
12:55 PM 80.6 °F 80.8 °F 57.2 °F 45% 29.80 in 10.0 mi SSE 20.7 mph 32.2 mph N/A   Clear
1:15 PM 80.6 °F 80.8 °F 57.2 °F 45% 29.80 in 10.0 mi SSE 24.2 mph 35.7 mph N/A   Clear
1:35 PM 82.4 °F 82.0 °F 57.2 °F 42% 29.79 in 10.0 mi SSE 21.9 mph 34.5 mph N/A   Clear
1:55 PM 82.4 °F 82.0 °F 57.2 °F 42% 29.79 in 10.0 mi South 25.3 mph 33.4 mph N/A   Clear
2:15 PM 82.4 °F 82.0 °F 57.2 °F 42% 29.78 in 10.0 mi SSE 24.2 mph 29.9 mph N/A   Clear
2:35 PM 82.4 °F 82.0 °F 57.2 °F 42% 29.78 in 10.0 mi SSE 24.2 mph 33.4 mph N/A   Clear
2:55 PM 84.2 °F 83.5 °F 57.2 °F 40% 29.78 in 10.0 mi SSE 19.6 mph 36.8 mph N/A   Clear
3:15 PM 84.2 °F 83.5 °F 57.2 °F 40% 29.78 in 10.0 mi SSE 21.9 mph 34.5 mph N/A   Clear
3:35 PM 84.2 °F 83.5 °F 57.2 °F 40% 29.78 in 10.0 mi SSE 19.6 mph 27.6 mph N/A   Clear
3:55 PM 84.2 °F 83.5 °F 57.2 °F 40% 29.77 in 10.0 mi South 21.9 mph 31.1 mph N/A   Clear
4:15 PM 84.2 °F 83.5 °F 57.2 °F 40% 29.77 in 10.0 mi SSE 23.0 mph 35.7 mph N/A   Clear
4:35 PM 84.2 °F 83.5 °F 57.2 °F 40% 29.77 in 10.0 mi SSE 15.0 mph 27.6 mph N/A   Clear
4:55 PM 84.2 °F 83.5 °F 57.2 °F 40% 29.77 in 10.0 mi SSE 17.3 mph 28.8 mph N/A   Clear
5:15 PM 84.2 °F 83.5 °F 57.2 °F 40% 29.77 in 10.0 mi SSE 20.7 mph 28.8 mph N/A   Clear
5:35 PM 82.4 °F 82.0 °F 57.2 °F 42% 29.78 in 10.0 mi SSE 19.6 mph 26.5 mph N/A   Clear
5:55 PM 82.4 °F 82.0 °F 57.2 °F 42% 29.77 in 10.0 mi SSE 18.4 mph 26.5 mph N/A   Clear
6:15 PM 80.6 °F 80.8 °F 57.2 °F 45% 29.77 in 10.0 mi SSE 16.1 mph 21.9 mph N/A   Clear
6:35 PM 80.6 °F 80.8 °F 57.2 °F 45% 29.78 in 10.0 mi SSE 15.0 mph 20.7 mph N/A   Clear
6:55 PM 78.8 °F - 57.2 °F 47% 29.78 in 10.0 mi SSE 11.5 mph 19.6 mph N/A   Clear
7:15 PM 77.0 °F - 57.2 °F 50% 29.78 in 10.0 mi SSE 12.7 mph - N/A   Clear
7:35 PM 77.0 °F - 57.2 °F 50% 29.78 in 10.0 mi SSE 15.0 mph 24.2 mph N/A   Clear
7:55 PM 75.2 °F - 57.2 °F 53% 29.78 in 10.0 mi SSE 16.1 mph 25.3 mph N/A   Clear
8:15 PM 75.2 °F - 57.2 °F 53% 29.79 in 10.0 mi SSE 13.8 mph 21.9 mph N/A   Clear
8:35 PM 73.4 °F - 57.2 °F 57% 29.80 in 10.0 mi SSE 15.0 mph 20.7 mph N/A   Clear
8:55 PM - - - N/A% - 10.0 mi North - - N/A   Clear
9:15 PM 73.4 °F - 59.0 °F 61% 29.82 in 10.0 mi SSE 13.8 mph 21.9 mph N/A   Unknown
9:35 PM 73.4 °F - 59.0 °F 61% 29.83 in 10.0 mi SSE 15.0 mph 23.0 mph N/A   Clear
9:55 PM 73.4 °F - 59.0 °F 61% 29.83 in 10.0 mi SSE 15.0 mph 21.9 mph N/A   Clear
10:15 PM 73.4 °F - 59.0 °F 61% 29.84 in 10.0 mi SSE 15.0 mph 21.9 mph N/A   Clear
10:35 PM 71.6 °F - 59.0 °F 64% 29.84 in 10.0 mi SSE 16.1 mph 21.9 mph N/A   Clear
10:55 PM 73.4 °F - 59.0 °F 61% 29.84 in 10.0 mi SSE 17.3 mph - N/A   Clear
11:15 PM 71.6 °F - 59.0 °F 64% 29.84 in 10.0 mi SSE 16.1 mph 27.6 mph N/A   Clear
11:35 PM 71.6 °F - 59.0 °F 64% 29.84 in 10.0 mi SSE 20.7 mph 31.1 mph N/A   Clear
11:55 PM 71.6 °F - 59.0 °F 64% 29.85 in 10.0 mi SSE 15.0 mph 26.5 mph N/A   Clear